Weather Roundup
Issued by NWS

Home | Current Version | Previous Version | Graphics & Text | Print | Product List | Glossary Off
Versions: 1 2 3 4 5 6 7 8 9 10 11 12 13 14 15 16 17 18 19 20 21 22 23 24 25 26 27 28 29 30 31 32 33 34 35 36 37 38 39 40 41 42 43 44 45 46 47 48 49 50

000
NZUS93 KARX 291110
HRRWXR

CURRENT HOURLY OBSERVATIONS ACROSS
MUCH OF THE UPPER MISSISSIPPI VALLEY
NATIONAL WEATHER SERVICE LA CROSSE WI
600 AM CDT MON JUN 29 2015


...SOUTHEAST MINNESOTA...


CITY           SKY/WX    TMP DP  RH WIND       PRES   REMARKS
ROCHESTER      CLEAR     60  59  96 W8        29.84S FOG
ROCHESTER/MAYO FAIR      61  61 100 W5        29.84R
WINONA         CLOUDY    63  61  94 CALM      29.81S FOG
AUSTIN         FOG       57  55  94 CALM      29.84R VSB<1/4
ALBERT LEA       N/A     63  63 100 CALM      29.84R FOG
DODGE CENTER   FOG       59  57  94 CALM      29.84R VSB<1/4
PRESTON        CLEAR     58  57  96 CALM      29.84S FOG
OWATONNA       PTCLDY    61  59  94 CALM      29.83S FOG
FARIBAULT      PTCLDY    61  59  94 CALM      29.83R FOG
$$

...ELSEWHERE IN MINNESOTA...


CITY           SKY/WX    TMP DP  RH WIND       PRES   REMARKS
MINNEAPOLIS    PTCLDY    65  63  93 SW3       29.82R
INTNL FALLS    PTCLDY    59  58  96 W3        29.77R FOG
DULUTH         PTCLDY    59  56  89 CALM      29.79S FOG
RED WING       FOG       63  63 100 CALM      29.81R VSB<1/4
REDWOOD FALLS  CLEAR     64  61  90 NW8       29.86R FOG
MANKATO        CLEAR     63  61  94 W6        29.84R
WORTHINGTON    CLEAR     63  55  77 NW8       29.91R
FAIRMONT       CLEAR     64  57  77 NW8       29.86R
$$

...SOUTHWEST WISCONSIN...


CITY           SKY/WX    TMP DP  RH WIND       PRES   REMARKS
LA CROSSE      CLOUDY    64  62  93 N3        29.80S FOG
PRAIRIE DU CHI CLOUDY    60  58  94 CALM      29.80S
BOSCOBEL       CLOUDY    63  62  97 SW3       29.80S FOG
LONE ROCK      CLOUDY    63  62  97 CALM      29.81R FOG
PLATTEVILLE    CLOUDY    60  59  98 CALM      29.81S VSB<1/4
FORT MC COY    CLOUDY    63  61  94 W5        29.81S
CAMP DOUGLAS   FOG       61  61 100 NW6       29.80R VSB 1/4
VIROQUA        CLOUDY    63  63 100 NW5       29.81S
WIS DELLS      CLOUDY    62  60  93 SW3       29.80S
$$

...ELSEWHERE IN WISCONSIN...


CITY           SKY/WX    TMP DP  RH WIND       PRES   REMARKS
MILWAUKEE      MOCLDY    62  52  69 CALM      29.81R
MADISON        MOCLDY    60  58  92 CALM      29.80R FOG
GREEN BAY      MOCLDY    59  55  87 CALM      29.81R
EAU CLAIRE     FOG       61  60  97 CALM      29.80R VSB 1/4
BLACK RVR FLS  FOG       63  63 100 W5        29.80S VSB 1/4
MEDFORD        CLOUDY    54  54 100 CALM      29.82R FOG
WAUSAU         PTCLDY    60  58  92 CALM      29.80R
WIS RAPIDS     CLOUDY    63  60  90 CALM      29.82R
MARSHFIELD     CLOUDY    62  59  90 CALM      29.81R FOG
RICE LAKE      FOG       61  59  95 CALM      29.83R VSB<1/4
$$

...NORTHEAST IOWA...


CITY           SKY/WX    TMP DP  RH WIND       PRES   REMARKS
DECORAH          N/A    N/A N/A N/A MISG        N/A
MASON CITY     CLEAR     61  59  93 NW8       29.85S
CHARLES CITY   FOG       59  59 100 CALM      29.84R VSB<1/4
OELWEIN          N/A     61  61 100 N3        29.83S
$$

...ELSEWHERE IN IOWA...


CITY           SKY/WX    TMP DP  RH WIND       PRES   REMARKS
DES MOINES     PTCLDY    65  62  90 W6        29.85R
IOWA CITY      FOG       61  61 100 CALM      29.83R VSB 1/4
FORT DODGE     CLEAR     63  57  82 CALM      29.88R
$$

...NORTHERN ILLINOIS...


CITY           SKY/WX    TMP DP  RH WIND       PRES   REMARKS
CHICAGO-OHARE  LGT RAIN  64  62  93 NE5       29.79S FOG
CHICAGO-MIDWAY LGT RAIN  67  63  87 S6        29.79S
MOLINE         FOG       63  61  93 CALM      29.81R VSB 1/4
ROCKFORD       FOG       61  59  93 CALM      29.81S VSB 1/2
PEORIA         CLOUDY    67  63  87 N6        29.78S
$$

NOTE: "FAIR" INDICATES FEW OR NO CLOUDS BELOW 12,000 FEET WITH NO
SIGNIFICANT WEATHER AND/OR OBSTRUCTIONS TO VISIBILITY. WIND
SPEEDS ARE IN MILES-PER-HOUR.



USA.gov is the U.S. government's official web portal to all federal, state and local government web resources and services.